ASA1339 KLAX-KSFO

Flight info

Callsign ASA1339
Flight time 0h 49m
Altitude 32000
Route SUMMR2 STOKD SERFR SERFR4
Aircraft B739/M-SDE2E3FGHIRWXY/LB1

Departure

Time 2026-04-21 15:49
Airport Los Angeles International Airport (KLAX)

Arrival

Time 2026-04-21 16:39
Airport San Francisco International Airport (KSFO)
Time Latitude Longitude Altitude Speed Heading
2026-04-21 15:11 33.94237 -118.40160 94 ft 0 kts 263°
2026-04-21 15:34 33.94238 -118.40132 95 ft 4 kts 275°
2026-04-21 15:34 33.94236 -118.40102 94 ft 4 kts 253°
2026-04-21 15:34 33.94235 -118.40096 94 ft 4 kts 212°
2026-04-21 15:35 33.94214 -118.40094 95 ft 3 kts 173°
2026-04-21 15:35 33.94190 -118.40090 95 ft 4 kts 173°
2026-04-21 15:35 33.94163 -118.40086 94 ft 4 kts 173°
2026-04-21 15:35 33.94136 -118.40082 94 ft 4 kts 173°
2026-04-21 15:36 33.94109 -118.40078 95 ft 4 kts 173°
2026-04-21 15:36 33.94082 -118.40074 95 ft 4 kts 173°
2026-04-21 15:36 33.94055 -118.40070 97 ft 4 kts 173°
2026-04-21 15:36 33.94048 -118.40069 96 ft 0 kts 173°
2026-04-21 15:41 33.94043 -118.40068 96 ft 2 kts 173°
2026-04-21 15:41 33.94011 -118.40064 96 ft 7 kts 173°
2026-04-21 15:41 33.93962 -118.40056 99 ft 7 kts 173°
2026-04-21 15:42 33.93914 -118.40047 100 ft 7 kts 161°
2026-04-21 15:42 33.93886 -118.40004 103 ft 7 kts 104°
2026-04-21 15:42 33.93888 -118.39911 103 ft 14 kts 83°
2026-04-21 15:42 33.93899 -118.39789 102 ft 15 kts 83°
2026-04-21 15:43 33.93911 -118.39670 101 ft 14 kts 82°
2026-04-21 15:43 33.93924 -118.39556 102 ft 13 kts 82°
2026-04-21 15:43 33.93935 -118.39447 101 ft 14 kts 83°
2026-04-21 15:43 33.93948 -118.39321 100 ft 17 kts 82°
2026-04-21 15:44 33.93962 -118.39186 100 ft 16 kts 83°
2026-04-21 15:44 33.93975 -118.39055 101 ft 15 kts 83°
2026-04-21 15:44 33.93988 -118.38928 101 ft 15 kts 83°
2026-04-21 15:44 33.94002 -118.38793 101 ft 16 kts 83°
2026-04-21 15:45 33.94016 -118.38660 102 ft 16 kts 83°
2026-04-21 15:45 33.94029 -118.38531 102 ft 15 kts 83°
2026-04-21 15:45 33.94041 -118.38407 102 ft 15 kts 83°
2026-04-21 15:45 33.94053 -118.38289 102 ft 14 kts 83°
2026-04-21 15:46 33.94065 -118.38176 102 ft 13 kts 82°
2026-04-21 15:46 33.94075 -118.38080 102 ft 8 kts 84°
2026-04-21 15:46 33.94077 -118.38044 102 ft 2 kts 91°
2026-04-21 15:46 33.94077 -118.38041 102 ft 0 kts 95°
2026-04-21 15:47 33.94075 -118.38031 102 ft 4 kts 104°
2026-04-21 15:48 33.94047 -118.37999 105 ft 7 kts 165°
2026-04-21 15:48 33.94001 -118.37996 108 ft 7 kts 195°
2026-04-21 15:48 33.93983 -118.38054 109 ft 16 kts 263°
2026-04-21 15:48 33.93938 -118.38494 108 ft 90 kts 263°
2026-04-21 15:49 33.93833 -118.39519 107 ft 153 kts 263°
2026-04-21 15:49 33.93683 -118.40976 259 ft 186 kts 262°
2026-04-21 15:49 33.93524 -118.42489 1106 ft 179 kts 261°
2026-04-21 15:49 33.93380 -118.43971 1953 ft 175 kts 261°
2026-04-21 15:50 33.93231 -118.45503 2444 ft 194 kts 262°
2026-04-21 15:50 33.93094 -118.47158 2997 ft 205 kts 262°
2026-04-21 15:50 33.92949 -118.48946 3337 ft 226 kts 263°
2026-04-21 15:50 33.92785 -118.50973 3451 ft 261 kts 262°
2026-04-21 15:51 33.92593 -118.53159 4341 ft 259 kts 262°
2026-04-21 15:51 33.92408 -118.55298 5424 ft 255 kts 262°
2026-04-21 15:51 33.92229 -118.57419 6400 ft 254 kts 262°
2026-04-21 15:51 33.92051 -118.59538 7262 ft 256 kts 261°
2026-04-21 15:52 33.91870 -118.61688 8074 ft 260 kts 261°
2026-04-21 15:52 33.91733 -118.63870 8965 ft 262 kts 264°
2026-04-21 15:52 33.91715 -118.65329 9534 ft 265 kts 265°
2026-04-21 15:52 33.91719 -118.67562 10306 ft 270 kts 265°
2026-04-21 15:53 33.91723 -118.69923 10556 ft 295 kts 265°
2026-04-21 15:53 33.91723 -118.73352 11003 ft 319 kts 265°
2026-04-21 15:53 33.91721 -118.76042 11657 ft 323 kts 265°
2026-04-21 15:53 33.91715 -118.78753 11953 ft 324 kts 264°
2026-04-21 15:54 33.91703 -118.81495 12313 ft 331 kts 264°
2026-04-21 15:54 33.91694 -118.83364 12879 ft 330 kts 264°
2026-04-21 15:54 33.91741 -118.86097 13731 ft 331 kts 265°
2026-04-21 15:54 33.91835 -118.88876 14425 ft 334 kts 266°
2026-04-21 15:55 33.91935 -118.91679 15088 ft 336 kts 266°
2026-04-21 15:55 33.92027 -118.94506 15751 ft 339 kts 265°
2026-04-21 15:55 33.92113 -118.97358 16400 ft 341 kts 265°
2026-04-21 15:55 33.92239 -119.00230 17027 ft 348 kts 271°
2026-04-21 15:56 33.92938 -119.03081 17623 ft 365 kts 288°
2026-04-21 15:56 33.94232 -119.05767 18242 ft 374 kts 294°
2026-04-21 15:56 33.95629 -119.08382 18732 ft 379 kts 295°
2026-04-21 15:56 33.97067 -119.11060 19253 ft 381 kts 294°
2026-04-21 15:57 33.98490 -119.13770 19817 ft 383 kts 294°
2026-04-21 15:57 33.99901 -119.16496 20371 ft 385 kts 294°
2026-04-21 15:57 34.01532 -119.19115 20870 ft 402 kts 308°
2026-04-21 15:57 34.03775 -119.21220 21401 ft 412 kts 316°
2026-04-21 15:58 34.06139 -119.23219 21917 ft 416 kts 317°
2026-04-21 15:58 34.08536 -119.25221 22400 ft 420 kts 317°
2026-04-21 15:58 34.10951 -119.27248 22922 ft 423 kts 316°
2026-04-21 15:58 34.13372 -119.29297 23434 ft 426 kts 316°
2026-04-21 15:59 34.15773 -119.31348 23882 ft 429 kts 316°
2026-04-21 15:59 34.18209 -119.33440 24290 ft 431 kts 316°
2026-04-21 15:59 34.20661 -119.35553 24726 ft 434 kts 316°
2026-04-21 15:59 34.23126 -119.37681 25145 ft 436 kts 316°
2026-04-21 16:00 34.25598 -119.39817 25555 ft 438 kts 316°
2026-04-21 16:00 34.28087 -119.41969 25968 ft 441 kts 316°
2026-04-21 16:00 34.30587 -119.44133 26360 ft 444 kts 316°
2026-04-21 16:00 34.33106 -119.46313 26762 ft 446 kts 316°
2026-04-21 16:01 34.35640 -119.48507 27143 ft 449 kts 316°
2026-04-21 16:01 34.38185 -119.50713 27523 ft 451 kts 316°
2026-04-21 16:01 34.40737 -119.52930 27972 ft 451 kts 315°
2026-04-21 16:01 34.43072 -119.55319 28543 ft 439 kts 307°
2026-04-21 16:02 34.45224 -119.57909 29190 ft 433 kts 305°
2026-04-21 16:02 34.47296 -119.60535 29773 ft 430 kts 304°
2026-04-21 16:02 34.49351 -119.63166 30248 ft 430 kts 304°
2026-04-21 16:02 34.51405 -119.65779 30784 ft 425 kts 304°
2026-04-21 16:03 34.53444 -119.68344 31439 ft 418 kts 304°
2026-04-21 16:03 34.55456 -119.70842 31958 ft 410 kts 304°
2026-04-21 16:03 34.59490 -119.75855 32078 ft 420 kts 304°
2026-04-21 16:04 34.63626 -119.80997 32095 ft 430 kts 304°
2026-04-21 16:04 34.67878 -119.86266 32048 ft 441 kts 304°
2026-04-21 16:05 34.72207 -119.91628 32064 ft 447 kts 305°
2026-04-21 16:05 34.76565 -119.97030 32056 ft 447 kts 304°
2026-04-21 16:06 34.80923 -120.02444 32060 ft 447 kts 304°
2026-04-21 16:06 34.85250 -120.07830 32072 ft 447 kts 304°
2026-04-21 16:07 34.89601 -120.13261 32049 ft 448 kts 304°
2026-04-21 16:07 34.93957 -120.18706 32060 ft 448 kts 304°
2026-04-21 16:08 35.00502 -120.26878 32057 ft 449 kts 304°
2026-04-21 16:09 35.04855 -120.32352 32067 ft 449 kts 304°
2026-04-21 16:09 35.09212 -120.37819 32056 ft 450 kts 305°
2026-04-21 16:10 35.13818 -120.43079 32059 ft 454 kts 308°
2026-04-21 16:10 35.18497 -120.48205 32059 ft 455 kts 308°
2026-04-21 16:11 35.23179 -120.53399 32063 ft 454 kts 308°
2026-04-21 16:11 35.27842 -120.58637 32074 ft 456 kts 308°
2026-04-21 16:12 35.32527 -120.63921 32053 ft 459 kts 308°
2026-04-21 16:12 35.37240 -120.69239 32067 ft 460 kts 308°
2026-04-21 16:13 35.41933 -120.74546 32049 ft 463 kts 308°
2026-04-21 16:13 35.46673 -120.79913 32058 ft 464 kts 308°
2026-04-21 16:14 35.51597 -120.85097 32052 ft 470 kts 313°
2026-04-21 16:14 35.56872 -120.89886 32068 ft 472 kts 315°
2026-04-21 16:15 35.62159 -120.94655 32044 ft 470 kts 314°
2026-04-21 16:15 35.67383 -120.99473 32045 ft 469 kts 314°
2026-04-21 16:16 35.72553 -121.04300 32040 ft 469 kts 314°
2026-04-21 16:16 35.77773 -121.09189 32034 ft 472 kts 314°
2026-04-21 16:17 35.83017 -121.14104 32027 ft 475 kts 314°
2026-04-21 16:17 35.88288 -121.19048 32028 ft 477 kts 314°
2026-04-21 16:18 35.93572 -121.24014 32025 ft 478 kts 314°
2026-04-21 16:18 35.98876 -121.29010 32033 ft 480 kts 314°
2026-04-21 16:19 36.04185 -121.34020 32022 ft 481 kts 314°
2026-04-21 16:19 36.09580 -121.38921 31516 ft 494 kts 318°
2026-04-21 16:19 36.12500 -121.41219 30749 ft 500 kts 320°
2026-04-21 16:20 36.15486 -121.43456 29834 ft 503 kts 321°
2026-04-21 16:20 36.18495 -121.45694 28778 ft 504 kts 321°
2026-04-21 16:20 36.21484 -121.47946 27853 ft 503 kts 320°
2026-04-21 16:20 36.24465 -121.50231 26824 ft 504 kts 320°
2026-04-21 16:21 36.27438 -121.52543 25842 ft 506 kts 320°
2026-04-21 16:21 36.30400 -121.54861 25102 ft 501 kts 320°
2026-04-21 16:21 36.33329 -121.57156 24398 ft 494 kts 320°
2026-04-21 16:21 36.36220 -121.59425 23675 ft 491 kts 320°
2026-04-21 16:22 36.39095 -121.61686 22840 ft 487 kts 320°
2026-04-21 16:22 36.41942 -121.63926 22204 ft 480 kts 321°
2026-04-21 16:22 36.44702 -121.66094 22096 ft 460 kts 321°
2026-04-21 16:22 36.47356 -121.68178 21892 ft 445 kts 320°
2026-04-21 16:23 36.49913 -121.70188 21660 ft 432 kts 320°
2026-04-21 16:23 36.52439 -121.72183 21100 ft 428 kts 321°
2026-04-21 16:23 36.54933 -121.74152 20610 ft 423 kts 321°
2026-04-21 16:23 36.57397 -121.76102 20150 ft 418 kts 321°
2026-04-21 16:24 36.59846 -121.78043 19612 ft 416 kts 322°
2026-04-21 16:24 36.62284 -121.79977 19118 ft 412 kts 322°
2026-04-21 16:24 36.64690 -121.81888 18631 ft 408 kts 322°
2026-04-21 16:24 36.67075 -121.83784 18130 ft 405 kts 323°
2026-04-21 16:25 36.69441 -121.85664 17598 ft 402 kts 323°
2026-04-21 16:25 36.71799 -121.87537 17076 ft 400 kts 323°
2026-04-21 16:25 36.74175 -121.89319 16560 ft 400 kts 331°
2026-04-21 16:25 36.76834 -121.90332 16126 ft 399 kts 345°
2026-04-21 16:26 36.79539 -121.91030 15634 ft 396 kts 346°
2026-04-21 16:26 36.82203 -121.91711 15183 ft 394 kts 345°
2026-04-21 16:26 36.84877 -121.92418 14705 ft 393 kts 345°
2026-04-21 16:26 36.87541 -121.93147 14205 ft 391 kts 345°
2026-04-21 16:27 36.90194 -121.93886 13734 ft 389 kts 345°
2026-04-21 16:27 36.92824 -121.94623 13188 ft 386 kts 345°
2026-04-21 16:27 36.95434 -121.95363 12705 ft 380 kts 343°
2026-04-21 16:27 36.97953 -121.96241 12322 ft 371 kts 340°
2026-04-21 16:28 37.00392 -121.97199 11845 ft 365 kts 339°
2026-04-21 16:28 37.02798 -121.98175 11390 ft 362 kts 339°
2026-04-21 16:28 37.05187 -121.99142 10930 ft 360 kts 339°
2026-04-21 16:28 37.07571 -122.00095 10527 ft 357 kts 339°
2026-04-21 16:29 37.09119 -122.00709 10436 ft 350 kts 339°
2026-04-21 16:29 37.12174 -122.01911 10191 ft 337 kts 339°
2026-04-21 16:29 37.14388 -122.02779 10037 ft 328 kts 339°
2026-04-21 16:29 37.16540 -122.03623 9932 ft 318 kts 339°
2026-04-21 16:30 37.18581 -122.04424 9917 ft 306 kts 339°
2026-04-21 16:30 37.20658 -122.05243 9201 ft 318 kts 339°
2026-04-21 16:30 37.22774 -122.06077 8737 ft 317 kts 339°
2026-04-21 16:30 37.24862 -122.06895 8395 ft 310 kts 339°
2026-04-21 16:31 37.26901 -122.07692 8031 ft 304 kts 339°
2026-04-21 16:31 37.28904 -122.08480 7649 ft 299 kts 339°
2026-04-21 16:31 37.30873 -122.09255 7270 ft 294 kts 339°
2026-04-21 16:31 37.32810 -122.10020 6886 ft 289 kts 339°
2026-04-21 16:32 37.34718 -122.10772 6526 ft 285 kts 339°
2026-04-21 16:32 37.36580 -122.11505 6138 ft 282 kts 339°
2026-04-21 16:32 37.38465 -122.12229 5799 ft 278 kts 341°
2026-04-21 16:32 37.40321 -122.12865 5535 ft 276 kts 342°
2026-04-21 16:33 37.42151 -122.13480 5239 ft 276 kts 342°
2026-04-21 16:33 37.44003 -122.14107 4947 ft 275 kts 342°
2026-04-21 16:33 37.45856 -122.14654 4653 ft 274 kts 350°
2026-04-21 16:33 37.47747 -122.14887 4366 ft 271 kts 354°
2026-04-21 16:34 37.49603 -122.15063 4092 ft 263 kts 354°
2026-04-21 16:34 37.51382 -122.15244 3835 ft 251 kts 353°
2026-04-21 16:34 37.53083 -122.15432 3563 ft 239 kts 351°
2026-04-21 16:34 37.54565 -122.16162 3298 ft 223 kts 316°
2026-04-21 16:35 37.55531 -122.17581 3045 ft 207 kts 296°
2026-04-21 16:35 37.56209 -122.19143 2774 ft 199 kts 292°
2026-04-21 16:35 37.56835 -122.20670 2512 ft 194 kts 292°
2026-04-21 16:35 37.57450 -122.22163 2263 ft 191 kts 293°
2026-04-21 16:36 37.58064 -122.23643 2018 ft 190 kts 293°
2026-04-21 16:36 37.58676 -122.25124 1780 ft 189 kts 292°
2026-04-21 16:36 37.59143 -122.26642 1513 ft 181 kts 280°
2026-04-21 16:36 37.59282 -122.28149 1287 ft 166 kts 263°
2026-04-21 16:37 37.59179 -122.29516 1079 ft 151 kts 264°
2026-04-21 16:37 37.59318 -122.30795 840 ft 149 kts 282°
2026-04-21 16:37 37.59742 -122.32006 681 ft 154 kts 296°
2026-04-21 16:37 37.60284 -122.33200 515 ft 159 kts 298°
2026-04-21 16:38 37.60813 -122.34441 308 ft 160 kts 296°
2026-04-21 16:38 37.61332 -122.35668 68 ft 159 kts 296°
2026-04-21 16:38 37.61822 -122.36836 17 ft 134 kts 298°
2026-04-21 16:38 37.62191 -122.37707 19 ft 91 kts 297°
2026-04-21 16:39 37.62356 -122.38098 20 ft 62 kts 298°
2026-04-21 16:39 37.62491 -122.38451 18 ft 35 kts 288°
2026-04-21 16:39 37.62501 -122.38723 18 ft 23 kts 268°
2026-04-21 16:39 37.62468 -122.38862 19 ft 16 kts 224°
2026-04-21 16:40 37.62358 -122.38934 16 ft 13 kts 197°
2026-04-21 16:40 37.62281 -122.38944 16 ft 10 kts 136°
2026-04-21 16:40 37.62245 -122.38866 14 ft 11 kts 118°
2026-04-21 16:40 37.62218 -122.38802 14 ft 13 kts 118°
2026-04-21 16:41 37.62171 -122.38691 16 ft 14 kts 119°
2026-04-21 16:41 37.62130 -122.38592 18 ft 11 kts 114°
2026-04-21 16:41 37.62097 -122.38514 18 ft 10 kts 119°
2026-04-21 16:41 37.62061 -122.38430 20 ft 12 kts 118°
2026-04-21 16:42 37.62016 -122.38323 23 ft 15 kts 117°
2026-04-21 16:42 37.61968 -122.38209 21 ft 15 kts 117°
2026-04-21 16:42 37.61921 -122.38097 22 ft 14 kts 120°
2026-04-21 16:42 37.61864 -122.38003 22 ft 13 kts 138°
2026-04-21 16:43 37.61778 -122.37951 18 ft 15 kts 170°
2026-04-21 16:43 37.61670 -122.37960 17 ft 16 kts 201°
2026-04-21 16:43 37.61568 -122.38020 13 ft 16 kts 204°
2026-04-21 16:43 37.61478 -122.38087 14 ft 14 kts 209°
2026-04-21 16:44 37.61401 -122.38140 14 ft 12 kts 209°
2026-04-21 16:44 37.61336 -122.38184 14 ft 7 kts 206°
2026-04-21 16:44 37.61323 -122.38192 14 ft 3 kts 206°
2026-04-21 16:44 37.61299 -122.38220 14 ft 6 kts 252°
2026-04-21 16:45 37.61291 -122.38267 16 ft 5 kts 252°
2026-04-21 16:45 37.61279 -122.38311 16 ft 5 kts 247°
2026-04-21 16:45 37.61259 -122.38338 17 ft 4 kts 213°
2026-04-21 16:45 37.61244 -122.38365 18 ft 4 kts 273°
2026-04-21 16:46 37.61256 -122.38390 17 ft 0 kts 297°
2026-04-21 16:46 37.61263 -122.38391 18 ft 0 kts 301°